SL-16 DEB, 49051

Orbit data source: Space-Track

SL-16 DEB, 49051 is space debris in LEO originally from a launch on Fri, 25 Dec 1992 UTC launched from the Tyuratam Missile And Space Complex (TTMTR). Debris objects in space refer to the collection of defunct objects orbiting the Earth. Examples of debris include non-operational satellites, rocket bodies, and fragments generated from explosions, collisions, or faulty payload assembly.

Loading next visibility...
Identifier
49051, 1992-093LY
Orbit
LEO
Country
Flag of CISCIS
Related business
Manufacturer
Unknown
Mission
Spacecraft
Bus & Motor
Unknown
Mass
Unknown
Launch date (UTC)
1992-12-25 (33 years ago)
Launch vehicle
Unknown
Launch site
Tyuratam Missile And Space Complex (TTMTR)
Object type
Payload
Rocket body
Debris
Shape & HBR
Unknown shape, 1.1 m
Radar Cross Section
RCS unknown

Expand to show TLE details & history
Last TLE update: 22 hours ago

TLE from 22 hours ago
0 SL-16 DEB
1 49051U 92093LY  26132.24380561  .00000678  00000-0  36897-3 0  9992
2 49051  71.0214 230.7101 0006214 216.1319 143.9385 14.15836240 21567
Epoch: 2026-05-12T05:51Z
TLE epoch observation values (Epoch: 2026-05-12T05:51:04.804Z)
Latitude
-0.00004°
Longitude
-87.0809°
Altitude
845.498 km
Speed
7.428 km/s
True Right ascension
15h 22m 50s
True Declination
0° 00' 00"
Sunlit
Object was in full shadow at epoch
Visualization orbit readout
Latitude
Unknown
Longitude
Unknown
Altitude
Unknown
Speed
Unknown
Apparent Right ascension
Unknown
Apparent Declination
Unknown
Sunlit
N/A
Visualization observer readout
Local Sidereal Time
12:09:48
Azimuth
Unknown
Elevation
Unknown
Doppler factor
Unknown
Orbital elements
Apogee altitude
841.874 km
Perigee altitude
832.907 km
Semi-major axis
7,215.528 km
Eccentricity
0.00062
Inclination
71.0214°
RAAN
230.7101°
Arg. of periapsis
216.1319°
True anomaly
143.98039°
Mean anomaly
143.9385°
Eccentric anomaly
143.95945°
Mean motion
3.54112 °/min
Orbital period
101.66 mins
BSTAR
0.00036897
Loading maneuver chart data...
Computing Atmospheric mass density...
Loading historical data...
Loading historical data...
Loading historical data...
Loading historical data...
Loading historical data...
Loading historical data...
Loading historical data...

Documentation

Showing up to 5 results
|